QPF
0.00 0.00 0.05 0.03 0.00 0.00 0.00 0.00 0.00 0.00 0.00 0.00 0.00 0.00 0.00 0.00 0.00 0.00 0.00 0.00 0.00 0.00 0.00 0.00 0.00 0.00 0.00 0.00 0.00 0.00 0.01 0.00 0.00 0.00 0.00 0.00 0.00 0.00 0.00 0.00 0.00 0.00 0.00
0.00 0.00 0.01 0.07 0.03 0.00 0.00 0.00 0.00 0.00 0.00 0.00 0.00 0.00 0.00 0.00 0.00 0.00 0.00 0.00 0.00 0.00 0.00 0.01 0.00 0.00 0.00 0.00 0.00 0.00 0.02 0.00 0.00 0.00 0.00 0.00 0.00 0.00 0.00 0.00 0.00 0.01 0.02
0.00 0.00 0.00 0.02 0.02 0.00 0.00 0.00 0.00 0.00 0.00 0.00 0.00 0.00 0.00 0.00 0.00 0.00 0.00 0.00 0.00 0.00 0.00 0.00 0.01 0.00 0.00 0.00 0.00 0.00 0.01 0.01 0.02 0.00 0.00 0.00 0.00 0.00 0.00 0.00 0.00 0.01 0.03
0.00 0.00 0.00 0.00 0.00 0.00 0.01 0.01 0.00 0.00 0.00 0.00 0.00 0.00 0.00 0.00 0.00 0.00 0.00 0.00 0.00 0.00 0.00 0.01 0.00 0.00 0.00 0.00 0.00 0.00 0.04 0.05 0.03 0.01 0.00 0.00 0.00 0.00 0.00 0.00 0.00 0.00 0.02
0.00 0.00 0.00 0.00 0.00 0.00 0.00 0.01 0.01 0.00 0.00 0.00 0.00 0.00 0.00 0.00 0.00 0.00 0.00 0.00 0.00 0.01 0.00 0.02 0.00 0.00 0.00 0.00 0.00 0.00 0.03 0.05 0.05 0.01 0.00 0.00 0.00 0.00 0.00 0.00 0.00 0.00 0.00
0.00 0.00 0.00 0.00 0.00 0.00 0.00 0.00 0.00 0.00 0.00 0.00 0.00 0.00 0.00 0.00 0.00 0.00 0.00 0.00 0.00 0.01 0.01 0.00 0.00 0.00 0.00 0.00 0.00 0.00 0.02 0.03 0.02 0.00 0.00 0.00 0.00 0.00 0.00 0.00 0.00 0.00 0.01
0.00 0.01 0.00 0.00 0.00 0.00 0.00 0.00 0.00 0.00 0.00 0.00 0.00 0.00 0.00 0.01 0.01 0.00 0.00 0.00 0.00 0.01 0.01 0.00 0.00 0.00 0.00 0.00 0.00 0.01 0.03 0.04 0.01 0.00 0.00 0.00 0.00 0.00 0.00 0.00 0.00 0.00 0.00
0.00 0.01 0.06 0.00 0.00 0.00 0.00 0.00 0.00 0.00 0.00 0.00 0.00 0.00 0.00 0.00 0.01 0.01 0.01 0.00 0.00 0.01 0.00 0.00 0.00 0.00 0.00 0.00 0.01 0.02 0.01 0.00 0.00 0.00 0.00 0.00 0.00 0.00 0.00 0.00 0.00 0.00 0.00
0.00 0.00 0.05 0.03 0.00 0.00 0.00 0.00 0.00 0.00 0.00 0.00 0.00 0.00 0.00 0.00 0.00 0.00 0.02 0.07 0.02 0.00 0.00 0.00 0.00 0.00 0.00 0.00 0.00 0.00 0.00 0.01 0.00 0.00 0.00 0.00 0.00 0.00 0.00 0.00 0.00 0.00 0.00
0.00 0.00 0.02 0.01 0.00 0.01 0.00 0.00 0.00 0.00 0.01 0.01 0.00 0.00 0.00 0.00 0.00 0.00 0.00 0.00 0.01 0.00 0.00 0.00 0.00 0.00 0.00 0.00 0.00 0.00 0.00 0.01 0.00 0.00 0.00 0.00 0.02 0.00 0.00 0.00 0.00 0.00 0.00
0.00 0.00 0.00 0.03 0.00 0.00 0.00 0.00 0.00 0.00 0.00 0.00 0.00 0.00 0.00 0.00 0.00 0.00 0.00 0.00 0.00 0.00 0.00 0.00 0.00 0.00 0.00 0.00 0.00 0.00 0.00 0.00 0.00 0.00 0.00 0.01 0.05 0.01 0.00 0.00 0.00 0.00 0.00
0.00 0.01 0.01 0.01 0.00 0.00 0.00 0.00 0.00 0.00 0.00 0.00 0.00 0.04 0.05 0.00 0.00 0.00 0.00 0.01 0.00 0.00 0.00 0.00 0.00 0.00 0.00 0.00 0.00 0.01 0.04 0.00 0.00 0.00 0.00 0.01 0.03 0.01 0.00 0.00 0.00 0.00 0.00
0.00 0.00 0.00 0.00 0.00 0.00 0.00 0.00 0.00 0.00 0.00 0.00 0.00 0.00 0.01 0.00 0.00 0.01 0.03 0.03 0.00 0.00 0.00 0.00 0.00 0.00 0.00 0.00 0.00 0.00 0.00 0.00 0.00 0.00 0.00 0.00 0.03 0.03 0.00 0.00 0.00 0.00 0.00
0.00 0.00 0.00 0.00 0.00 0.00 0.00 0.00 0.00 0.00 0.00 0.00 0.00 0.00 0.00 0.00 0.00 0.00 0.00 0.01 0.00 0.00 0.00 0.00 0.00 0.00 0.00 0.00 0.00 0.00 0.00 0.00 0.00 0.00 0.01 0.03 0.03 0.03 0.01 0.00 0.00 0.00 0.00
0.00 0.00 0.00 0.00 0.00 0.00 0.00 0.00 0.00 0.00 0.00 0.00 0.00 0.00 0.00 0.00 0.00 0.01 0.01 0.00 0.01 0.00 0.02 0.01 0.01 0.04 0.00 0.00 0.00 0.00 0.02 0.00 0.00 0.03 0.00 0.05 0.01 0.04 0.07 0.03 0.01 0.00 0.00
0.00 0.00 0.00 0.00 0.00 0.00 0.00 0.00 0.00 0.00 0.00 0.00 0.00 0.00 0.00 0.00 0.00 0.00 0.02 0.02 0.04 0.01 0.02 0.07 0.07 0.03 0.01 0.09 0.02 0.00 0.02 0.01 0.01 0.00 0.00 0.00 0.00 0.02 0.03 0.03 0.04 0.03 0.04
0.00 0.00 0.00 0.00 0.00 0.00 0.00 0.00 0.00 0.00 0.00 0.00 0.00 0.00 0.00 0.00 0.00 0.00 0.03 0.03 0.06 0.02 0.02 0.01 0.01 0.00 0.00 0.09 0.00 0.00 0.00 0.00 0.00 0.00 0.00 0.00 0.01 0.03 0.03 0.01 0.03 0.08 0.04
0.00 0.00 0.00 0.00 0.00 0.00 0.00 0.00 0.00 0.00 0.00 0.00 0.00 0.00 0.00 0.00 0.00 0.00 0.02 0.04 0.02 0.02 0.05 0.06 0.03 0.08 0.07 0.00 0.01 0.00 0.00 0.00 0.00 0.00 0.00 0.00 0.00 0.00 0.02 0.03 0.05 0.06 0.05
0.00 0.00 0.00 0.00 0.00 0.00 0.00 0.00 0.00 0.00 0.00 0.00 0.00 0.00 0.00 0.00 0.00 0.03 0.14 0.05 0.06 0.08 0.06 0.07 0.06 0.07 0.09 0.03 0.01 0.01 0.02 0.01 0.00 0.00 0.00 0.00 0.00 0.00 0.00 0.03 0.07 0.06 0.04
0.00 0.00 0.00 0.00 0.00 0.00 0.00 0.00 0.00 0.00 0.00 0.00 0.00 0.00 0.00 0.00 0.00 0.09 0.18 0.07 0.10 0.03 0.06 0.11 0.12 0.06 0.09 0.06 0.01 0.06 0.10 0.04 0.00 0.00 0.01 0.01 0.00 0.00 0.10 0.18 0.05 0.05 0.04
0.00 0.00 0.00 0.00 0.00 0.00 0.00 0.00 0.00 0.00 0.00 0.00 0.00 0.00 0.00 0.00 0.01 0.07 0.13 0.07 0.07 0.04 0.06 0.12 0.06 0.01 0.08 0.08 0.09 0.13 0.14 0.09 0.04 0.08 0.04 0.04 0.01 0.01 0.06 0.06 0.01 0.09 0.05
0.00 0.00 0.00 0.00 0.00 0.00 0.00 0.00 0.00 0.00 0.00 0.00 0.00 0.00 0.00 0.00 0.00 0.06 0.07 0.08 0.08 0.06 0.01 0.02 0.01 0.01 0.07 0.07 0.06 0.02 0.01 0.02 0.02 0.10 0.05 0.03 0.02 0.08 0.08 0.11 0.13 0.11 0.03
0.00 0.00 0.00 0.00 0.00 0.00 0.00 0.00 0.00 0.00 0.00 0.00 0.01 0.03 0.03 0.00 0.00 0.01 0.10 0.04 0.04 0.06 0.07 0.01 0.00 0.00 0.00 0.01 0.01 0.01 0.00 0.00 0.00 0.00 0.00 0.01 0.05 0.08 0.14 0.16 0.19 0.15 0.06
0.00 0.00 0.00 0.00 0.00 0.00 0.00 0.00 0.00 0.00 0.00 0.00 0.01 0.10 0.04 0.00 0.00 0.00 0.06 0.11 0.07 0.07 0.06 0.03 0.00 0.00 0.00 0.00 0.00 0.00 0.01 0.00 0.00 0.00 0.01 0.00 0.02 0.01 0.01 0.01 0.05 0.03 0.00
0.00 0.00 0.00 0.00 0.00 0.00 0.00 0.00 0.00 0.00 0.00 0.00 0.00 0.06 0.06 0.00 0.00 0.00 0.01 0.11 0.04 0.03 0.08 0.07 0.00 0.00 0.00 0.00 0.00 0.00 0.01 0.02 0.01 0.01 0.01 0.00 0.00 0.00 0.00 0.00 0.00 0.00 0.03
0.00 0.00 0.00 0.00 0.00 0.00 0.00 0.00 0.00 0.00 0.00 0.00 0.00 0.00 0.01 0.00 0.00 0.00 0.00 0.03 0.02 0.00 0.00 0.01 0.01 0.00 0.01 0.04 0.09 0.09 0.04 0.03 0.04 0.02 0.00 0.00 0.00 0.00 0.00 0.00 0.00 0.00 0.00
MSLP
1011.94 1011.60 1011.92 1012.34 1012.50 1012.61 1012.79 1013.07 1013.22 1013.41 1013.67 1013.86 1013.97 1014.13 1014.32 1014.36 1014.47 1014.53 1014.59 1014.76 1014.80 1014.97 1015.10 1015.22 1015.35 1015.46 1015.69 1015.90 1015.85 1016.04 1016.32 1016.66 1016.73 1016.96 1017.03 1017.16 1017.31 1017.45 1017.61 1017.69 1017.88 1017.92 1017.92
1011.28 1011.40 1011.89 1012.45 1012.69 1012.86 1012.85 1013.02 1013.41 1013.75 1013.97 1013.97 1014.06 1014.34 1014.50 1014.54 1014.59 1014.56 1014.73 1014.85 1014.92 1015.00 1015.22 1015.39 1015.55 1015.68 1015.91 1016.11 1016.03 1016.28 1016.47 1016.81 1016.97 1017.16 1017.23 1017.25 1017.36 1017.57 1017.76 1017.90 1018.04 1018.22 1018.19
1011.17 1011.32 1011.50 1012.15 1012.80 1013.00 1013.15 1013.23 1013.45 1013.76 1014.08 1014.12 1014.18 1014.31 1014.60 1014.70 1014.77 1014.78 1014.87 1014.97 1015.14 1015.27 1015.45 1015.58 1015.77 1015.84 1016.14 1016.22 1016.28 1016.41 1016.61 1016.94 1017.01 1017.31 1017.44 1017.54 1017.59 1017.72 1017.98 1018.11 1018.21 1018.36 1018.40
1010.97 1011.26 1011.53 1011.81 1012.36 1012.92 1013.23 1013.51 1013.46 1013.76 1014.11 1014.36 1014.36 1014.42 1014.63 1014.81 1014.94 1014.98 1015.03 1015.14 1015.28 1015.51 1015.60 1015.71 1015.90 1015.96 1016.28 1016.40 1016.56 1016.60 1016.80 1017.01 1017.21 1017.49 1017.63 1017.69 1017.74 1017.99 1018.13 1018.25 1018.45 1018.54 1018.64
1011.24 1011.52 1011.66 1011.96 1012.23 1012.72 1013.21 1013.50 1013.60 1013.73 1014.06 1014.42 1014.53 1014.57 1014.69 1014.87 1015.05 1015.13 1015.19 1015.28 1015.42 1015.65 1015.73 1015.87 1016.05 1016.16 1016.39 1016.55 1016.72 1016.84 1017.00 1017.13 1017.34 1017.56 1017.73 1017.95 1018.01 1018.08 1018.27 1018.44 1018.58 1018.73 1018.85
1011.53 1011.70 1011.81 1012.00 1012.25 1012.63 1013.01 1013.46 1013.85 1013.77 1014.16 1014.41 1014.60 1014.69 1014.74 1014.97 1015.11 1015.19 1015.30 1015.45 1015.52 1015.68 1015.87 1016.06 1016.16 1016.30 1016.42 1016.71 1016.83 1016.94 1017.24 1017.31 1017.32 1017.48 1017.72 1017.95 1018.07 1018.10 1018.35 1018.57 1018.66 1018.86 1018.98
1011.46 1012.04 1012.22 1012.34 1012.49 1012.67 1013.07 1013.27 1013.80 1013.90 1014.16 1014.45 1014.58 1014.74 1014.69 1014.79 1015.02 1015.29 1015.37 1015.52 1015.59 1015.76 1015.97 1016.12 1016.23 1016.37 1016.49 1016.74 1016.95 1017.10 1017.25 1017.33 1017.29 1017.41 1017.68 1017.90 1017.98 1018.01 1018.27 1018.61 1018.88 1019.09 1019.29
1011.30 1011.66 1011.98 1012.53 1012.89 1012.94 1013.11 1013.32 1013.60 1013.88 1014.06 1014.40 1014.54 1014.69 1014.75 1014.68 1014.95 1015.24 1015.43 1015.63 1015.72 1015.74 1015.93 1016.16 1016.27 1016.33 1016.45 1016.70 1016.90 1017.02 1017.34 1017.37 1017.41 1017.69 1018.02 1018.28 1017.99 1018.06 1018.33 1018.63 1018.94 1019.18 1019.34
1011.11 1011.61 1011.65 1012.05 1012.74 1013.09 1013.23 1013.41 1013.53 1013.75 1013.93 1014.30 1014.49 1014.64 1014.82 1014.83 1014.81 1015.06 1015.40 1015.64 1015.82 1015.88 1015.97 1016.19 1016.25 1016.32 1016.42 1016.66 1016.86 1016.97 1017.17 1017.28 1017.52 1017.62 1018.04 1018.50 1018.23 1018.26 1018.33 1018.58 1018.82 1019.07 1019.23
1011.42 1011.81 1011.90 1012.06 1012.52 1012.85 1013.32 1013.42 1013.62 1013.69 1013.82 1014.19 1014.46 1014.68 1014.82 1014.98 1014.96 1015.06 1015.30 1015.62 1015.78 1015.98 1016.10 1016.25 1016.35 1016.43 1016.49 1016.70 1016.90 1017.01 1017.12 1017.19 1017.46 1017.59 1017.78 1018.18 1018.34 1018.35 1018.50 1018.58 1018.68 1018.90 1019.11
1011.54 1012.05 1012.26 1012.28 1012.70 1012.84 1013.20 1013.35 1013.55 1013.71 1013.71 1013.99 1014.28 1014.59 1014.83 1015.16 1015.17 1015.21 1015.42 1015.58 1015.73 1015.87 1016.05 1016.23 1016.40 1016.55 1016.61 1016.75 1016.96 1017.02 1017.07 1017.26 1017.40 1017.41 1017.54 1017.86 1018.02 1018.19 1018.35 1018.46 1018.50 1018.65 1018.86
1011.81 1012.31 1012.40 1012.52 1012.65 1012.78 1012.99 1013.20 1013.52 1013.66 1013.73 1013.98 1014.23 1014.55 1014.89 1015.23 1015.35 1015.36 1015.46 1015.59 1015.67 1015.77 1015.92 1016.17 1016.43 1016.59 1016.67 1016.80 1017.03 1017.07 1017.23 1017.21 1017.38 1017.22 1017.38 1017.53 1017.74 1017.90 1018.06 1018.25 1018.44 1018.51 1018.66
1011.40 1012.22 1012.45 1012.55 1012.59 1012.80 1012.89 1013.09 1013.35 1013.72 1013.81 1014.03 1014.25 1014.54 1014.84 1015.18 1015.43 1015.30 1015.50 1015.55 1015.68 1015.73 1015.84 1016.00 1016.34 1016.56 1016.73 1016.85 1016.96 1017.11 1017.17 1017.22 1017.30 1017.13 1017.04 1017.20 1017.54 1017.67 1017.94 1018.17 1018.27 1018.32 1018.57
1011.59 1011.86 1012.13 1012.35 1012.38 1012.66 1012.93 1012.96 1013.10 1013.47 1013.72 1013.98 1014.03 1014.34 1014.64 1014.99 1015.17 1015.29 1015.39 1015.46 1015.60 1015.80 1015.97 1015.98 1016.17 1016.41 1016.62 1016.71 1016.76 1016.91 1016.96 1017.08 1017.16 1016.93 1016.97 1017.24 1017.31 1017.45 1017.75 1018.08 1018.28 1018.33 1018.25
1011.37 1011.54 1011.89 1012.13 1012.31 1012.54 1012.91 1013.06 1013.06 1013.11 1013.31 1013.60 1013.81 1013.99 1014.28 1014.68 1015.04 1014.99 1015.25 1015.51 1015.56 1015.76 1016.00 1016.16 1016.19 1016.31 1016.44 1016.58 1016.61 1016.63 1016.69 1016.72 1016.67 1016.83 1016.80 1016.93 1017.10 1017.30 1017.43 1017.59 1017.84 1018.16 1018.20
1010.78 1011.10 1011.45 1011.85 1012.16 1012.33 1012.68 1012.87 1012.94 1012.92 1013.03 1013.14 1013.38 1013.51 1013.74 1014.19 1014.53 1014.85 1014.94 1015.18 1015.31 1015.40 1015.60 1015.94 1016.08 1016.24 1016.42 1016.36 1016.46 1016.29 1016.19 1016.29 1016.16 1016.25 1016.62 1016.49 1016.41 1016.85 1017.03 1017.18 1017.40 1017.68 1017.88
1009.97 1010.44 1011.01 1011.43 1011.89 1012.16 1012.39 1012.55 1012.58 1012.70 1012.90 1012.93 1013.06 1013.11 1013.29 1013.70 1014.10 1014.30 1014.61 1014.73 1014.82 1015.12 1015.24 1015.53 1015.81 1015.91 1016.31 1016.31 1016.36 1015.97 1015.95 1015.92 1015.94 1015.94 1016.12 1016.06 1016.09 1016.43 1016.67 1016.63 1016.87 1017.05 1017.32
1009.43 1010.04 1010.55 1011.00 1011.54 1011.91 1012.11 1012.36 1012.42 1012.51 1012.69 1012.88 1012.85 1013.01 1013.09 1013.40 1013.57 1013.88 1014.37 1014.52 1014.45 1014.62 1014.99 1015.50 1015.78 1016.00 1016.07 1016.17 1016.13 1016.00 1015.98 1015.72 1015.59 1015.65 1015.73 1015.69 1015.78 1015.82 1016.03 1016.21 1016.41 1016.47 1016.45
1008.65 1009.49 1010.22 1010.67 1011.11 1011.44 1011.75 1011.97 1012.16 1012.16 1012.35 1012.57 1012.78 1012.90 1013.02 1013.11 1013.09 1013.31 1014.08 1014.08 1014.14 1014.34 1014.66 1015.09 1015.56 1015.75 1016.03 1016.14 1016.06 1015.91 1015.95 1015.78 1015.46 1015.27 1015.23 1015.32 1015.37 1015.59 1015.89 1015.97 1015.97 1016.23 1016.26
1008.40 1008.96 1009.73 1010.35 1010.73 1011.11 1011.38 1011.69 1011.95 1012.06 1012.11 1012.17 1012.49 1012.73 1012.80 1012.94 1012.89 1013.10 1013.53 1013.74 1014.01 1014.30 1014.44 1014.87 1015.32 1015.48 1015.71 1015.90 1016.09 1016.06 1015.88 1015.68 1015.40 1015.16 1015.18 1015.10 1015.22 1015.31 1015.60 1015.72 1015.64 1015.74 1015.89
1008.33 1008.78 1009.48 1010.09 1010.54 1011.00 1011.44 1011.72 1012.03 1012.11 1012.09 1012.18 1012.23 1012.06 1012.30 1012.51 1012.56 1012.81 1013.43 1013.53 1013.67 1014.27 1014.31 1014.87 1015.08 1015.35 1015.61 1015.66 1016.30 1016.29 1016.10 1015.84 1015.66 1015.66 1015.40 1015.31 1015.22 1015.36 1015.72 1015.52 1015.57 1015.62 1015.67
1007.72 1008.38 1009.17 1009.73 1010.21 1010.58 1011.02 1011.30 1011.42 1011.70 1011.84 1011.78 1011.90 1011.79 1011.87 1012.12 1012.26 1012.46 1012.79 1013.14 1013.61 1013.96 1014.45 1014.75 1014.74 1014.95 1015.30 1015.52 1016.08 1016.51 1016.45 1016.13 1016.04 1015.94 1016.02 1015.76 1015.43 1015.49 1015.69 1015.64 1015.67 1015.65 1015.56
1007.40 1007.89 1008.58 1009.27 1009.75 1010.10 1010.49 1011.01 1011.32 1011.48 1011.64 1011.79 1011.85 1011.73 1011.64 1011.67 1011.92 1012.04 1012.19 1012.68 1013.17 1013.77 1014.06 1014.23 1014.42 1014.79 1015.18 1015.39 1015.30 1015.80 1016.37 1016.47 1016.37 1016.19 1016.33 1016.06 1015.79 1015.83 1015.81 1015.64 1015.52 1015.18 1015.41
1006.73 1007.47 1008.06 1008.74 1009.42 1009.83 1010.23 1010.73 1011.06 1011.29 1011.60 1011.41 1011.44 1011.39 1011.36 1011.27 1011.61 1011.72 1011.84 1012.26 1012.81 1013.54 1013.67 1013.98 1014.20 1014.48 1014.85 1015.22 1015.41 1015.18 1015.31 1015.66 1016.19 1016.53 1016.50 1016.30 1016.07 1015.98 1015.89 1015.77 1015.66 1015.41 1015.14
1006.41 1007.01 1007.69 1008.34 1009.01 1009.39 1009.89 1010.23 1010.62 1010.89 1011.07 1011.06 1011.20 1011.35 1011.33 1011.46 1011.45 1011.49 1011.57 1012.12 1012.70 1013.05 1013.27 1013.64 1013.87 1014.18 1014.58 1014.86 1014.95 1014.97 1015.25 1015.48 1015.64 1016.08 1016.25 1016.40 1016.29 1016.16 1015.94 1015.71 1015.63 1015.52 1015.04
1006.31 1006.83 1007.32 1007.91 1008.50 1008.98 1009.37 1009.82 1010.28 1010.45 1010.62 1011.00 1011.17 1011.20 1011.36 1011.33 1011.35 1011.34 1011.39 1011.78 1012.15 1012.37 1012.87 1013.07 1013.32 1013.66 1013.82 1014.00 1014.21 1014.44 1014.59 1014.97 1015.25 1015.53 1015.90 1015.88 1016.02 1016.22 1015.99 1015.90 1015.78 1015.51 1015.35
Thickness
5772 5776 5773 5769 5768 5768 5767 5765 5764 5764 5763 5762 5764 5762 5761 5762 5763 5763 5764 5764 5764 5763 5763 5763 5762 5762 5761 5761 5762 5759 5757 5755 5753 5752 5753 5751 5750 5749 5747 5748 5747 5747 5748
5779 5776 5772 5767 5765 5765 5767 5766 5763 5760 5759 5761 5762 5761 5760 5760 5761 5764 5763 5764 5764 5764 5763 5762 5761 5761 5760 5760 5761 5759 5758 5755 5754 5753 5753 5754 5752 5750 5749 5749 5748 5747 5747
5780 5776 5775 5768 5763 5762 5762 5764 5763 5760 5758 5759 5760 5761 5759 5759 5760 5763 5763 5763 5763 5762 5762 5761 5760 5761 5759 5760 5760 5759 5759 5756 5756 5754 5753 5753 5753 5751 5749 5749 5748 5747 5747
5781 5778 5775 5772 5766 5762 5761 5760 5763 5761 5758 5756 5758 5760 5759 5759 5759 5760 5762 5762 5761 5760 5760 5760 5760 5760 5758 5759 5758 5759 5759 5757 5756 5754 5754 5753 5753 5751 5750 5749 5748 5747 5746
5779 5776 5773 5769 5768 5763 5760 5759 5761 5762 5760 5756 5756 5758 5758 5759 5759 5759 5760 5761 5760 5759 5759 5760 5760 5760 5758 5758 5757 5758 5758 5757 5756 5755 5755 5753 5753 5752 5751 5750 5748 5747 5746
5777 5774 5769 5768 5766 5764 5762 5759 5758 5761 5758 5757 5756 5757 5757 5757 5758 5759 5759 5760 5760 5759 5759 5759 5760 5759 5758 5757 5757 5757 5757 5757 5757 5757 5757 5755 5754 5753 5751 5750 5749 5747 5746
5777 5765 5760 5761 5761 5762 5761 5760 5758 5759 5757 5756 5756 5756 5758 5758 5758 5759 5759 5758 5759 5759 5759 5759 5759 5759 5759 5757 5755 5756 5756 5757 5758 5759 5758 5757 5756 5755 5752 5750 5748 5746 5744
5776 5765 5754 5753 5754 5757 5759 5759 5759 5759 5758 5756 5756 5756 5757 5760 5758 5758 5759 5758 5759 5760 5760 5759 5760 5760 5760 5759 5757 5758 5757 5757 5758 5756 5755 5756 5757 5755 5752 5750 5748 5746 5744
5776 5766 5757 5754 5753 5755 5757 5757 5759 5759 5759 5756 5756 5757 5757 5756 5758 5758 5758 5758 5758 5759 5760 5759 5760 5761 5760 5759 5759 5759 5759 5759 5757 5758 5754 5753 5756 5755 5754 5752 5750 5748 5747
5780 5771 5761 5759 5756 5757 5758 5757 5757 5760 5759 5756 5756 5756 5756 5756 5757 5759 5759 5758 5757 5757 5757 5758 5759 5760 5760 5759 5759 5760 5760 5760 5759 5758 5758 5755 5754 5754 5753 5753 5753 5751 5750
5783 5774 5764 5760 5758 5760 5759 5759 5759 5759 5759 5758 5757 5756 5755 5754 5755 5756 5756 5756 5757 5757 5757 5757 5757 5758 5760 5759 5759 5760 5760 5761 5760 5760 5760 5757 5756 5755 5755 5755 5756 5755 5753
5783 5774 5768 5763 5762 5761 5761 5761 5761 5760 5759 5759 5758 5756 5755 5753 5754 5755 5755 5755 5756 5757 5757 5756 5756 5757 5758 5759 5759 5759 5760 5761 5761 5763 5762 5761 5759 5758 5758 5757 5756 5756 5754
5789 5778 5771 5769 5765 5763 5763 5763 5762 5760 5760 5758 5757 5755 5755 5753 5753 5754 5755 5755 5755 5756 5757 5758 5756 5757 5758 5759 5760 5760 5759 5760 5760 5762 5765 5764 5761 5761 5759 5757 5756 5756 5754
5789 5783 5779 5775 5774 5769 5765 5765 5763 5760 5759 5759 5759 5756 5756 5753 5754 5755 5755 5755 5755 5754 5755 5758 5758 5757 5758 5759 5759 5760 5761 5760 5760 5763 5764 5763 5763 5762 5759 5757 5754 5754 5755
5791 5789 5783 5781 5777 5774 5768 5765 5762 5762 5761 5759 5759 5759 5757 5755 5754 5755 5754 5753 5753 5753 5752 5753 5755 5756 5757 5757 5759 5760 5762 5762 5763 5764 5765 5763 5763 5762 5760 5758 5756 5753 5753
5798 5792 5789 5785 5779 5773 5770 5768 5764 5763 5763 5762 5761 5761 5760 5757 5754 5753 5754 5755 5755 5754 5754 5753 5753 5753 5754 5756 5757 5760 5763 5764 5766 5766 5764 5765 5767 5764 5762 5759 5757 5754 5752
5806 5801 5794 5788 5782 5777 5773 5770 5768 5766 5763 5762 5761 5761 5760 5757 5756 5756 5756 5757 5757 5756 5755 5754 5753 5754 5753 5754 5755 5759 5760 5762 5765 5766 5766 5767 5767 5764 5762 5761 5758 5756 5753
5811 5803 5798 5795 5786 5780 5775 5771 5769 5766 5764 5761 5760 5760 5758 5755 5757 5757 5756 5756 5757 5756 5755 5753 5752 5751 5753 5753 5754 5757 5759 5761 5765 5766 5765 5766 5767 5766 5763 5760 5758 5757 5758
5817 5808 5800 5795 5787 5782 5779 5775 5770 5766 5764 5761 5759 5757 5755 5754 5756 5758 5754 5755 5756 5755 5756 5754 5750 5751 5749 5749 5752 5755 5756 5758 5763 5764 5765 5766 5766 5763 5759 5757 5758 5756 5756
5819 5812 5805 5797 5790 5785 5782 5778 5773 5769 5766 5762 5758 5757 5755 5753 5756 5755 5753 5753 5752 5753 5753 5752 5749 5750 5750 5747 5748 5750 5752 5755 5759 5761 5762 5764 5763 5761 5757 5755 5757 5757 5754
5819 5813 5805 5796 5790 5784 5778 5773 5768 5765 5764 5762 5759 5758 5756 5753 5754 5752 5750 5750 5750 5747 5749 5746 5746 5745 5746 5748 5740 5742 5746 5749 5752 5753 5756 5757 5758 5757 5753 5754 5754 5753 5751
5821 5815 5807 5799 5792 5788 5781 5777 5774 5769 5765 5763 5761 5758 5756 5753 5752 5752 5750 5748 5746 5744 5743 5743 5745 5744 5744 5744 5737 5734 5731 5739 5743 5746 5746 5749 5752 5751 5749 5749 5748 5747 5749
5820 5816 5811 5801 5795 5790 5785 5779 5774 5769 5765 5760 5756 5756 5756 5754 5751 5751 5751 5747 5742 5740 5740 5742 5743 5743 5738 5739 5742 5734 5724 5724 5731 5739 5737 5741 5745 5745 5744 5744 5744 5743 5746
5824 5819 5813 5805 5797 5792 5787 5780 5773 5765 5760 5761 5758 5756 5754 5753 5750 5749 5748 5745 5742 5737 5736 5740 5741 5740 5737 5733 5736 5739 5739 5735 5726 5724 5730 5732 5738 5739 5740 5739 5738 5737 5742
5826 5821 5815 5808 5800 5795 5789 5783 5776 5768 5765 5763 5759 5755 5752 5749 5747 5746 5747 5743 5739 5736 5736 5736 5738 5737 5734 5732 5733 5735 5734 5734 5732 5726 5722 5724 5730 5732 5733 5735 5733 5735 5739
5824 5820 5817 5810 5803 5798 5792 5785 5778 5773 5768 5760 5757 5754 5751 5748 5747 5747 5747 5745 5742 5741 5737 5737 5736 5736 5736 5736 5735 5734 5733 5730 5727 5725 5721 5723 5725 5725 5726 5725 5727 5729 5731